Weather in Saransk

Russia / Republic of Mordovia     54°11′13″N   45°11′01″E
temp.,
°C
wind,
m/s
gust,
m/s
humid.,
%
clouds,
%
prec.,
mm/h
press.,
hPa
HPBL,
m
8 march, mon
mon800:00−4sw91793100 0.2 995834
03:00−4w81687100 0.7 995688
06:00−8wsw6149389 0.0 997448
09:00−8wsw6128982 0.0 1000500
12:00−5sw598961 0.0 1000677
15:00−3wsw6108480 0.4 9991190
18:00−6w61381100 1.1 1001783
21:00−10w5109284 1.3 1005204
9 march, tue
tue900:00−13w34942 0.0 100751
03:00−15wsw33951 0.0 100925
06:00−17wsw239828 0.0 101020
09:00−13w239461 0.1 1011198
12:00−11nw2390100 0.0 1011353
15:00−10nnw3590100 0.1 1011438
18:00−14n369498 0.1 1012140
21:00−15nnw499597 0.1 1014299
10 march, wed
wed1000:00−17nw479786 0.1 1015195
03:00−19nw489793 0.1 1016224
06:00−20nnw4997100 0.1 1018273
09:00−20nnw5895100 0.2 1020396
12:00−19nnw5892100 0.0 1021521
15:00−19nnw6989100 0.1 1022532
18:00−24nnw479344 0.0 1023129
21:00−25nw339622 0.0 102533
11 march, thu
thu1100:00−26nw23985 0.0 102620
03:00−25wnw3310050 0.0 102765
06:00−26wnw3410091 0.0 102856
09:00−21wnw479675 0.0 1028241
12:00−16wnw579168 0.0 1027333
15:00−12wnw6109184 0.1 1027561
18:00−12wnw41094100 0.1 1027313
21:00−15nw479788 0.1 1029113
12 march, fri
fri1200:00−17nw339856 0.0 103023
03:00−18wnw229835 0.0 103120
06:00−19w22993 0.0 103220
09:00−15wsw23931 0.0 1033130
12:00−10sw348910 0.0 1032303
15:00−9ssw46906 0.0 1031343
18:00−13ssw47946 0.0 1031110
21:00−16s410883 0.0 1030162